This is the latest recevied weather packets stored in our database for station/object YG1CIC-13. If no packets are shown the sender has not sent any weather packets the latest 1 day(s).
| Time | Temp. | Humidity | Pressure | Rain* | Wind** | Luminosity | Snow |
|---|---|---|---|---|---|---|---|
| 1778076932 | 30° C | 88% | - | 0 mm | - | - | - |
| 1778075131 | 30° C | 87% | - | 0 mm | - | - | - |
| 1778074531 | 30° C | 87% | - | 0 mm | - | - | - |
| 1778073330 | 30.56° C | 86% | - | 0 mm | - | - | - |
| 1778072730 | 30.56° C | 84% | - | 0 mm | - | - | - |
| 1778072130 | 30.56° C | 84% | - | 0 mm | - | - | - |
| 1778069728 | 30.56° C | 82% | - | 0 mm | - | - | - |
| 1778069127 | 31.11° C | 83% | - | 0 mm | - | - | - |
| 1778068526 | 31.11° C | 83% | - | 0 mm | - | - | - |
| 1778067925 | 31.11° C | 83% | - | 0 mm | - | - | - |
| 1778067324 | 31.11° C | 82% | - | 0 mm | - | - | - |
| 1778066724 | 31.11° C | 83% | - | 0 mm | - | - | - |
| 1778066123 | 31.11° C | 83% | - | 0 mm | - | - | - |
| 1778065523 | 31.11° C | 82% | - | 0 mm | - | - | - |
| 1778064322 | 31.67° C | 81% | - | 0 mm | - | - | - |
| 1778063122 | 31.67° C | 80% | - | 0 mm | - | - | - |
| 1778060121 | 32.78° C | 75% | - | 0 mm | - | - | - |
| 1778059521 | 33.33° C | 75% | - | 0 mm | - | - | - |
| 1778058920 | 33.89° C | 72% | - | 0 mm | - | - | - |
| 1778058319 | 33.89° C | 72% | - | 0 mm | - | - | - |
| 1778057718 | 33.33° C | 72% | - | 0 mm | - | - | - |
| 1778057117 | 33.89° C | 71% | - | 0 mm | - | - | - |
| 1778056516 | 33.89° C | 69% | - | 0 mm | - | - | - |
| 1778055915 | 34.44° C | 69% | - | 0 mm | - | - | - |
| 1778055315 | 34.44° C | 69% | - | 0 mm | - | - | - |
* Rain latest hour (hover to see other rain measurements)
** Current wind speed in m/s (hover to see current wind gust speed)